Погода в Сюмсях

Россия / Удмуртская Республика     57°06′36″N   51°36′53″E
темп.,
°C
ветер,
м/с
пор.,
м/с
влажн.,
%
обл.,
%
осадки,
мм/ч
давл.,
гПа
погр.,
м
25 февраля, чт
чт2501:00−27сз12980 0.0 103319
04:00−28з11998 0.0 103319
07:00−28ю119946 0.0 103219
10:00−24ю249424 0.0 1030206
13:00−18ююв368777 0.0 1027391
16:00−17ююв488789 0.0 1025439
19:00−19юв41091100 0.0 1023425
22:00−19юв41096100 0.2 1022435
26 февраля, пт
пт2601:00−19юв4994100 0.1 1021450
04:00−21юв3896100 0.1 1021330
07:00−22юв4996100 0.0 1020317
10:00−20юв4893100 0.0 1020386
13:00−16юв5889100 0.0 1018520
16:00−16юв51090100 0.1 1017550
19:00−18юв51392100 0.1 1014547
22:00−17юв61491100 0.1 1010531
27 февраля, сб
сб2701:00−17юв71595100 0.6 1005533
04:00−16юв61394100 3.1 1003662
07:00−15вюв51294100 1.6 1001600
10:00−13вюв51091100 1.9 1000519
13:00−11в4989100 0.1 1000557
16:00−10в4891100 0.4 1001586
19:00−11всв399399 0.2 1001449
22:00−12св499393 0.3 1003414
28 февраля, вс
вс2801:00−14св399486 0.1 1003351
04:00−16св389390 0.3 1005336
07:00−17ссв3894100 0.1 1006361
10:00−16ссв369198 0.1 1008377
13:00−14ссв3689100 0.0 1010455
16:00−12ссв3689100 0.1 1011509
19:00−17с279598 0.0 1013158
22:00−19с259659 0.0 1015124
1 марта, пн
пн101:00−22с23970 0.0 101681
04:00−22с25970 0.0 1018131
07:00−22с25970 0.0 1020124
10:00−17с25921 0.0 1021260
13:00−12ссз248556 0.0 1021395
16:00−10сз248866 0.0 1020447
19:00−15зюз239790 0.0 101926
22:00−16юз279493 0.0 1018162